Edwards, CA

1:25 PM PST on December 07, 2016 (GMT -0800)
Edwards AFB North Base

Weather History for K9L2 - September, 2013

Change the Weather History Date:

Friday, September 27, 2013

  Actual Average (KEDW) Record (KEDW)
Temperature  
Mean Temperature 56 °F -  
Max Temperature 75 °F 86 °F 101 °F (2010)
Min Temperature 39 °F 53 °F 42 °F (2013)
Degree Days  
Heating Degree Days 9    
Growing Degree Days 6 (Base 50)    
Moisture  
Dew Point 20 °F    
Average Humidity 26    
Maximum Humidity 47    
Minimum Humidity 11    
Precipitation  
Precipitation 0.00 in - - ()
Sea Level Pressure  
Sea Level Pressure 30.03 in    
Wind  
Wind Speed 2 mph (SSW)    
Max Wind Speed 6 mph    
Max Gust Speed -    
Visibility 10 miles    
Events      
Averages and records for this station are not official NWS values.
T = Trace of Precipitation, MM = Missing Value Source: NWS Daily Summary

Daily Weather History Graph

Daily Weather History Graph

Search for Another Location

Airport or City:

Trip Planner

Search our weather history database for the weather conditions in past years. The results will help you decide how hot, cold, wet, or windy it might be!

Date:

Astronomy

Sep. 27, 2013 Rise Set
Actual Time 6:43 AM PDT 6:40 PM PDT
Civil Twilight 6:18 AM PDT 7:05 PM PDT
Nautical Twilight 5:48 AM PDT 7:35 PM PDT
Astronomical Twilight 5:19 AM PDT 8:04 PM PDT
Moon No Moon Rise 2:10 PM PDT (9/27)
Length of Visible Light 12h 47m
Length of Day
11h 57m
Last Quarter, 44% of the Moon is Illuminated
Sep 27
Last Quarter
Oct 4
New
Oct 11
First Quarter
Oct 18
Full
Oct 26
Last Quarter

Hourly Weather History & Observations

Time (PDT) Temp. Windchill Dew Point Humidity Pressure Visibility Wind Dir Wind Speed Gust Speed Precip Events Conditions
12:55 AM 46.9 °F - 25.0 °F 42% 29.93 in 10.0 mi Calm Calm - N/A   Clear
1:55 AM 48.0 °F - 25.0 °F 41% 29.95 in 10.0 mi Variable 3.5 mph - N/A   Clear
2:55 AM 44.1 °F - 23.0 °F 43% 29.96 in 10.0 mi Calm Calm - N/A   Clear
3:55 AM 43.0 °F - 23.0 °F 45% 29.96 in 10.0 mi Calm Calm - N/A   Clear
4:55 AM 42.1 °F - 23.0 °F 47% 29.99 in 10.0 mi Calm Calm - N/A   Clear
6:55 AM 39.0 °F 36.8 °F 19.9 °F 46% 30.05 in 10.0 mi South 3.5 mph - N/A   Clear
7:55 AM 48.0 °F - 24.1 °F 39% 30.06 in 10.0 mi Calm Calm - N/A   Clear
8:55 AM 53.1 °F - 26.1 °F 35% 30.08 in 10.0 mi Calm Calm - N/A   Clear
9:55 AM 60.1 °F - 25.0 °F 26% 30.09 in 10.0 mi South 5.8 mph - N/A   Clear
10:55 AM 63.0 °F - 23.0 °F 22% 30.08 in 10.0 mi South 5.8 mph - N/A   Clear
11:55 AM 66.0 °F - 21.9 °F 19% 30.07 in 10.0 mi Calm Calm - N/A   Clear
12:55 PM 69.1 °F - 21.0 °F 16% 30.06 in 10.0 mi Calm Calm - N/A   Clear
1:55 PM 70.0 °F - 19.0 °F 14% 30.03 in 10.0 mi Calm Calm - N/A   Clear
2:55 PM 73.0 °F - 17.1 °F 12% 30.01 in 10.0 mi Variable 5.8 mph - N/A   Clear
3:55 PM 73.9 °F - 16.0 °F 11% 30.00 in 10.0 mi Variable 5.8 mph - N/A   Clear
4:55 PM 73.9 °F - 15.1 °F 11% 30.01 in 10.0 mi Calm Calm - N/A   Clear
5:55 PM 73.0 °F - 15.1 °F 11% 30.01 in 10.0 mi ENE 5.8 mph - N/A   Clear
6:55 PM 70.0 °F - 14.0 °F 12% 30.02 in 10.0 mi Calm Calm - N/A   Clear
7:55 PM 61.0 °F - 12.0 °F 15% 30.04 in 10.0 mi Calm Calm - N/A   Clear
8:55 PM 55.9 °F - 10.9 °F 17% 30.06 in 10.0 mi West 3.5 mph - N/A   Clear
11:55 PM 51.1 °F - 19.9 °F 29% 30.07 in 10.0 mi West 3.5 mph - N/A   Clear